Regional Weather Roundup
Issued by NWS Wilmington, NC

Home | Current Version | Previous Version | Text Only | Print | Product List | Glossary On
Versions: 1 2 3 4 5 6 7 8 9 10 11 12 13 14 15 16 17 18 19 20 21 22 23 24 25 26 27 28 29 30 31 32 33 34 35 36 37 38 39 40 41 42 43 44 45 46 47 48 49 50
000
ASUS42 KILM 301613
RWRILM
RWRILM
REGIONAL HOURLY WEATHER ROUNDUP
NATIONAL WEATHER SERVICE WILMINGTON NC
1200 PM EDT TUE JUN 30 2015

NOTE: "FAIR" INDICATES FEW OR NO CLOUDS BELOW 12,000 FEET WITH NO
SIGNIFICANT WEATHER AND/OR OBSTRUCTIONS TO VISIBILITY.

...............WFO WILMINGTON COUNTY WARNING AREA...............

......COASTAL NC AND SC COUNTIES......

CITY           SKY/WX    TMP DP  RH WIND       PRES   REMARKS
WILMINGTON     SUNNY     88  65  46 SW9       30.00S HX  90
N MYRTLE BEACH SUNNY     89  65  44 W6        30.01S HX  91
MYRTLE BEACH   SUNNY     90  66  45 W7        30.03S HX  92

......INLAND NC AND SC COUNTIES.......

CITY           SKY/WX    TMP DP  RH WIND       PRES   REMARKS
LUMBERTON      SUNNY     87  67  51 SW9       29.98F HX  90
ELIZABETHTOWN  SUNNY     86  67  51 SW8       29.99F
WHITEVILLE     SUNNY     86  68  53 W6        30.00S
FLORENCE       SUNNY     90  66  45 SW16G22   29.99F HX  92
DARLINGTON     SUNNY     90  64  43 SW10      29.99S HX  91

....................REST OF NORTH CAROLINA......................

.........EASTERN NC.........

CITY           SKY/WX    TMP DP  RH WIND       PRES   REMARKS
CAPE HATTERAS  SUNNY     83  74  74 SW9       30.00F
JACKSONVILLE   SUNNY     90  66  45 W6        29.99S HX  92
MOREHEAD CITY  SUNNY     84  72  67 S12       30.00S
KENANSVILLE    SUNNY     87  66  50 SW6       29.99S
NEW BERN       MOSUNNY   88  66  48 S10       30.00F HX  90
ELIZABETH CITY MOSUNNY   86  68  54 S12       29.96F

.........CENTRAL NC.........

CITY           SKY/WX    TMP DP  RH WIND       PRES   REMARKS
RALEIGH DURHAM MOSUNNY   86  67  52 SW9       29.95F
ROCKY MOUNT    SUNNY     90  68  48 S8        29.95F HX  94
ROANOKE RAPIDS NOT AVBL
FAYETTEVILLE   SUNNY     88  67  49 S12       29.97F HX  91
HOFFMAN        SUNNY     88  64  44 W12G20    30.00S

.........WESTERN NC.........

CITY           SKY/WX    TMP DP  RH WIND       PRES   REMARKS
CHARLOTTE      MOSUNNY   88  62  41 SW10      29.96F
GREENSBORO     MOSUNNY   86  61  42 W8        29.96S
HICKORY        NOT AVBL
BOONE          NOT AVBL
ASHEVILLE      NOT AVBL

.....................REST OF SOUTH CAROLINA.....................

.........EASTERN SC.........

CITY           SKY/WX    TMP DP  RH WIND       PRES   REMARKS
CHARLESTON     PTSUNNY   88  69  53 S8        30.03S HX  92
BEAUFORT MCAS  PTSUNNY   88  70  55 SW9       30.03S HX  93
HILTON HEAD    MOSUNNY   90  72  55 S9        30.04F HX  96

.........CENTRAL SC.........

CITY           SKY/WX    TMP DP  RH WIND       PRES   REMARKS
COLUMBIA       PTSUNNY   89  67  47 SW8       29.98F HX  92
ORANGEBURG     MOSUNNY   89  66  46 W9        30.01S HX  91
SUMTER SHAW    SUNNY     89  66  46 SW10G16   29.98S HX  91

.........WESTERN SC.........

CITY           SKY/WX    TMP DP  RH WIND       PRES   REMARKS
GREENVILLE     NOT AVBL
ROCK HILL      SUNNY     87  67  51 SW7G16    29.97F HX  90
ANDERSON       MOSUNNY   88  66  48 SW15G24   29.98F HX  90
CLEMSON        NOT AVBL
GREENWOOD      MOSUNNY   85  68  56 NW6       30.01F


...................COASTAL AND OFFSHORE REPORTS..................

................LOCAL PIERS AND NC RESERVE................


STATION/POSITION TIME  SKY/WX   TEMP    WIND        PRES    VSBY
                                AIR SEA DIR/SP/G
                 (UTC)          (F)     (DEG/KT/KT) (MB)    (MI)
JOHNY MRCER PIER 1500            86 81  240/  8/ 11 1015.6F
NC RESRV MASNBRO NOT AVBL
OCEAN CREST PIER NOT AVBL
SPRINGMAID  PIER 1500            85 83  210/  7/  9 1016.4R


................COASTAL AND OFFSHORE BUOYS................


STATION/POSITION TIME  SKY/WX   TEMP    WIND        PRES    VSBY
                                AIR SEA DIR/SP/G
                 (UTC)          (F)     (DEG/KT/KT) (MB)    (MI)
DIMNDSHOAL 41025 1550            81 82  220/ 10/ 12 1015.9S
WVE H/P(F/S)=  3/ 8 WND WVE H/P(F/S)=  2/ 5 SWL H/P/D(F/S/D)=  3/110/ 8

CAPE LOOKOUT     1600            82     230/  7/  9 1015.6F
ONSLOW BAY 41036 NOT AVBL
5 WRITEBCH 41038 1508            81 80  200/  6/  8 1016.2F
MASONBORO  41110 1519               80                N/A
WVE H/P(F/S)=  3/ 7 WND WVE H/P(F/S)=  3/ 7

WILM HARBR 41108 1511               81                N/A
WVE H/P(F/S)=  3/ 5 WND WVE H/P(F/S)=  3/ 5

27WRITEBCH 41037 1500               81  250/ 10/ 12   N/A
FRYING PAN 41013 1550            81 80  240/ 12/ 14 1017.1S
WVE H/P(F/S)=  4/ 6 WND WVE H/P(F/S)=  3/ 5 SWL H/P/D(F/S/D)=  2/150/ 6

SUNST NRSH 41024 1508            82     220/  6/ 10 1016.3S
CAPRS NRSH 41029 1508            83     240/ 10/ 14 1017.3R
EDISTO     41004 1550            81 82  230/ 10/ 12 1017.1R
WVE H/P(F/S)=  4/ 7 WND WVE H/P(F/S)=  2/ 4 SWL H/P/D(F/S/D)=  3/ 7



..........OFFSHORE BUOYS BEYOND 100 NM OFFSHORE...........
.....IN A TRIANGLE---HAT TO BERMUDA TO BAHAMAS TO HAT.....


STATION/POSITION TIME  SKY/WX   TEMP    WIND        PRES    VSBY
                                AIR SEA DIR/SP/G
                 (UTC)          (F)     (DEG/KT/KT) (MB)    (MI)
150E HAT   41001 NOT AVBL
W BERMUDA  41048 1550            81 80  200/ 17/ 23 1022.2R
WVE H/P(F/S)=  8/ 7 WND WVE H/P(F/S)=  7/ 7 SWL H/P/D(F/S/D)=  2/ 50/13

ATLANTIC S 41049 1550            82 84  110/ 10/ 12 1026.7R
WVE H/P(F/S)=  4/ 9 WND WVE H/P(F/S)=  2/ 4 SWL H/P/D(F/S/D)=  3/ 30/ 9

E BAHAMAS  41046 1550            83 83   90/ 14/ 16 1023.7R
WVE H/P(F/S)=  5/ 8 WND WVE H/P(F/S)=  3/ 6 SWL H/P/D(F/S/D)=  3/120/ 8

NE BAHAMAS 41047 1550            83 83  220/ 16/ 17 1023.6R
WVE H/P(F/S)=  5/ 8 WND WVE H/P(F/S)=  3/ 6 SWL H/P/D(F/S/D)=  3/130/ 8

120E CANVRL41010 1520            83 84  260/ 16/ 17 1019.9F

END



USA.gov is the U.S. government's official web portal to all federal, state and local government web resources and services.